Regional Weather Roundup
Issued by NWS

Home | Current Version | Previous Version | Text Only | Print | Product List | Glossary On
Versions: 1 2 3 4 5 6 7 8 9 10 11 12 13 14 15 16 17 18 19 20 21 22 23 24 25 26 27 28 29 30 31 32 33 34 35 36 37 38 39 40 41 42 43 44 45 46 47 48 49 50
839
ASUS43 KLSX 220859
RWRMO

WEATHER SUMMARY FOR MISSOURI
NATIONAL WEATHER SERVICE SPRINGFIELD MO
400 AM CDT FRI MAY 22 2015

NOTE: "FAIR" INDICATES FEW OR NO CLOUDS BELOW 12,000 FEET WITH NO
       SIGNIFICANT WEATHER AND/OR OBSTRUCTIONS TO VISIBILITY.
       CURRENT SKY AND/OR WEATHER CONDITIONS ARE NOT AVAILABLE FOR
       CHILLICOTHE AND FARMINGTON.

MOZ001>031-035>038-043-044-053-054-221000-
...NORTHERN AND WESTERN MISSOURI...

CITY           SKY/WX    TMP DP  RH WIND       PRES   REMARKS
KANSAS CTY INT PTCLDY    52  45  77 W5        30.21F
KANSAS C DTWN  CLEAR     53  45  74 N3        30.20F
LEE`S SUMMIT   CLEAR     50  44  80 CALM      30.21F
ST JOSEPH      PTCLDY    47  45  93 CALM      30.21F
KIRKSVILLE     CLEAR     53  44  71 W7        30.19S

$$
MOZ066>068-077>081-088>096-101>105-221000-
...SOUTHWEST MISSOURI...

CITY           SKY/WX    TMP DP  RH WIND       PRES   REMARKS
SPRINGFIELD    CLEAR     43  40  89 CALM      30.21F
JOPLIN         CLEAR     44  43  96 E3        30.22S

$$
MOZ032>034-039>042-045>050-055>058-069>072-221000-
...CENTRAL MISSOURI...

CITY           SKY/WX    TMP DP  RH WIND       PRES   REMARKS
COLUMBIA       CLEAR     51  44  77 W7        30.21S
JEFFERSON CITY CLEAR     47  45  93 CALM      30.22S
ROLLA          CLEAR     44  41  89 SW6       30.20F
SEDALIA        FAIR      53  44  71 W6        30.23S
OSAGE BEACH    CLEAR     43  39  87 CALM      30.23S

$$
MOZ051-052-059>065-221000-
...EAST CENTRAL MISSOURI...

CITY           SKY/WX    TMP DP  RH WIND       PRES   REMARKS
ST LOUIS INTL  CLEAR     53  43  68 W6        30.20R
SPIRIT OF STL  CLEAR     47  44  90 CALM      30.20R
ST CHARLES     CLEAR     49  44  83 CALM      30.19S

$$
MOZ072>076-082>087-097>100-106>115-221000-
...SOUTH CENTRAL AND SOUTHEAST MISSOURI...

CITY           SKY/WX    TMP DP  RH WIND       PRES   REMARKS
CAPE GIRARDEAU CLEAR     45  44  97 NW5       30.24R FOG
FARMINGTON     CLEAR     41  39  93 S3        30.26S
POPLAR BLUFF   CLEAR     46  43  89 CALM      30.23S
WEST PLAINS    CLEAR     41  38  89 CALM      30.24R

$$



USA.gov is the U.S. government's official web portal to all federal, state and local government web resources and services.